Location: Deerlick Astronomy Village
(33.5614°N, 82.7631°W)
Time: 20:59:07
(UTC-04:00)

Iridium 66 - Visible Passes

Search period start: 04 May 2016 00:00
Search period end: 14 May 2016 00:00
Orbit: 776 x 779 km, 86.4° (Epoch: 04 May)

Date Brightness Start Highest point End Pass type
(mag) Time Alt. Az. Time Alt. Az. Time Alt. Az.
04 May 8.4 01:03:51 10° N 01:05:23 19° NNW 01:05:23 19° NNW visible
05 May 8.2 00:30:16 10° N 00:32:03 22° N 00:32:03 22° N visible
05 May 8.2 23:57:05 10° NNE 23:58:43 19° NNE 23:58:43 19° NNE visible
06 May 8.7 01:38:35 10° NW 01:39:12 12° NW 01:39:12 12° NW visible
06 May 8.4 23:24:30 10° NE 23:25:24 13° NE 23:25:24 13° NE visible
07 May 8.3 01:04:12 10° NNW 01:05:52 20° NNW 01:05:52 20° NNW visible
08 May 8.0 00:30:21 10° N 00:32:33 26° N 00:32:33 26° N visible
08 May 7.8 23:56:55 10° N 23:59:15 26° NNE 23:59:15 26° NNE visible
09 May 7.9 23:23:56 10° NNE 23:25:57 20° NE 23:25:57 20° NE visible
10 May 8.4 01:04:42 10° NNW 01:06:25 18° NW 01:06:25 18° NW visible
10 May 8.3 22:51:47 10° NE 22:52:39 12° NE 22:52:39 12° NE visible
11 May 7.8 00:30:35 10° NNW 00:33:08 28° NNW 00:33:08 28° NNW visible
11 May 7.4 23:56:55 10° N 23:59:50 34° N 23:59:50 34° N visible
12 May 7.4 23:23:38 10° NNE 23:26:33 29° NE 23:26:33 29° NE visible
13 May 8.5 01:05:32 10° NW 01:07:02 15° WNW 01:07:02 15° WNW visible
13 May 7.8 22:50:54 10° NNE 22:53:17 19° NE 22:53:17 19° NE visible
